Flag for Germany Weather past 2 weeks in Potsdam, Brandenburg, Germany

Now
54 °F

Light rain. Overcast.


Feels Like: 54 °F
Forecast: 52 / 67 °F
Wind: 3 mph from West

Location: Potsdam

Current Time: Apr 26, 2015 at 1:38:56 AM

Latest Report: Apr 26, 2015 at 1:00 AM


Visibility: 19 mi

Pressure: 29.76 "Hg

Humidity: 92%

Dew point: 52 °F

Location of PotsdamLocation

Historic Weather in Potsdam — Graph

°F

Potsdam temperature yesterday

Maximum temperature yesterday: 73 °F (at 1:00 PM)
Minimum temperature yesterday: 49 °F (at 5:00 AM)
Average temperature yesterday: 61 °F

Past Weeks' High & Low Weather Summary

 TemperatureHumidityPressure
High73 °F (Apr 11, 3:00 PM)100% (Apr 18, 5:00 AM)30.42 "Hg (Apr 18, 5:00 AM)
Low33 °F (Apr 18, 7:00 AM)19% (Apr 21, 4:00 PM)29.71 "Hg (Apr 25, 4:00 PM)
Average52 °F59%30.12 "Hg
* Reported Midnight between Apr 10 and Apr 11 — Midnight between Apr 25 and Apr 26, Potsdam, Weather by CustomWeather, © 2015

Note: Actual official high and low records may vary slightly from our data, if they occured in-between our weather recording intervals... More about our weather records

Advertising

Potsdam weather history for previous 24 hours

 ConditionsComfort  
Time TempWeatherWind HumidityBarometerVisibility
12:00 AM
Sun, Apr 26
54 °FOvercast.3 mph87%29.76 "Hg25 mi
11:00 PM
Sat, Apr 25
55 °FOvercast.3 mph90%29.75 "Hg25 mi
10:00 PM60 °FOvercast.5 mph60%29.75 "Hg25 mi
9:00 PM62 °FOvercast.7 mph51%29.74 "Hg25 mi
8:00 PM62 °FOvercast.3 mph49%29.72 "Hg25 mi
7:00 PM64 °FLight rain. Overcast.2 mph44%29.72 "Hg25 mi
6:00 PM65 °FLight rain. Overcast.7 mph42%29.73 "Hg22 mi
5:00 PM69 °FOvercast.7 mph31%29.72 "Hg25 mi
4:00 PM71 °FOvercast.7 mph27%29.71 "Hg22 mi
3:00 PM73 °FOvercast.6 mph25%29.72 "Hg18 mi
2:00 PM72 °FOvercast.6 mph24%29.74 "Hg18 mi
1:00 PM73 °FOvercast.5 mph28%29.75 "Hg18 mi
12:00 PM69 °FOvercast.5 mph33%29.78 "Hg18 mi
11:00 AM67 °FOvercast.3 mph36%29.78 "Hg18 mi
10:00 AM62 °FOvercast.3 mph41%29.80 "Hg18 mi
9:00 AM57 °FOvercast.3 mph50%29.80 "Hg17 mi
8:00 AM51 °FPartly sunny.5 mph63%29.80 "Hg17 mi
7:00 AM50 °FScattered clouds.6 mph64%29.80 "Hg17 mi
6:00 AM49 °FPassing clouds.7 mph64%29.80 "Hg16 mi
5:00 AM49 °FPassing clouds.7 mph65%29.81 "Hg22 mi
3:00 AM51 °FPassing clouds.6 mph61%29.82 "Hg22 mi
1:00 AM54 °FPassing clouds.7 mph54%29.83 "Hg22 mi
Weather by CustomWeather, © 2015

See weather overviewHow to use our weather pages